Location: Piotrkow Trybunalski
(51.4000°N, 19.6830°E)
Time: 22:18:53
(UTC+01:00)

Explorer 7 - Pass Details

Date: 24 December 2025
Orbit: 433 x 550 km, 50.2° (Epoch: 13 January)

Event Time Altitude Azimuth Distance (km) Brightness Sun altitude
Rises 18:38:06 0° 278° (W) 2,454 11.4 -26.8°
Reaches altitude 10° 18:40:57 10° 254° (WSW) 1,560 10.1 -27.3°
Maximum altitude 18:42:59 15° 218° (SW) 1,283 9.1 -27.6°
Enters shadow 18:43:03 15° 217° (SW) 1,283 9.1 -27.6°
